Flag for Chile Weather past 2 weeks in Antofagasta, Chile

Now
57 °F

Overcast.


Feels Like: 57 °F
Forecast: 54 / 67 °F
Wind: 3 mph from Southwest

Location: Antofagasta Airport

Current Time: Aug 20, 2014 at 11:09:38 PM

Latest Report: Aug 20, 2014 at 10:00 PM


Visibility: N/A

Pressure: 30.04 "Hg

Humidity: 77%

Dew point: 50 °F

Location of AntofagastaLocation

Historic Weather in Antofagasta — Graph

°F

Antofagasta temperature yesterday

Maximum temperature yesterday: 64 °F (at 12:00 PM)
Minimum temperature yesterday: 57 °F (at 8:00 PM)
Average temperature yesterday: 60 °F

Past Weeks' High & Low Weather Summary

 TemperatureHumidityPressure
High66 °F (Aug 18, 3:00 PM)88% (Aug 14, 10:00 PM)30.15 "Hg (Aug 14, 10:00 PM)
Low52 °F (Aug 15, 2:00 AM)52% (Aug 18, 3:00 PM)29.83 "Hg (Aug 17, 4:00 PM)
Average57 °F74%29.99 "Hg
* Reported Aug 5 10:00 PM — Aug 20 10:00 PM, Antofagasta, Weather by CustomWeather, © 2014

Note: Actual official high and low records may vary slightly from our data, if they occured in-between our weather recording intervals... More about our weather records

Advertising

Antofagasta weather history for previous 24 hours

 ConditionsComfort  
Time TempWeatherWind HumidityBarometerVisibility
10:00 PM
Aug 20
57 °FOvercast.3 mph77%30.04 "HgN/A
9:00 PM57 °FOvercast.9 mph77%30.01 "HgN/A
8:00 PM59 °FPassing clouds.9 mph72%30.01 "HgN/A
7:00 PM59 °FPassing clouds.10 mph72%30.01 "HgN/A
6:00 PM59 °FPassing clouds.12 mph68%29.98 "HgN/A
5:00 PM59 °FPartly sunny.13 mph68%29.98 "HgN/A
4:00 PM61 °FScattered clouds.14 mph68%29.95 "HgN/A
3:00 PM61 °FScattered clouds.15 mph68%29.98 "HgN/A
2:00 PM63 °FPassing clouds.13 mph64%29.98 "HgN/A
1:00 PM61 °FPassing clouds.9 mph68%29.98 "HgN/A
12:00 PM61 °FPassing clouds.9 mph68%29.98 "HgN/A
11:00 AM59 °FPartly sunny.9 mph68%29.98 "HgN/A
10:00 AM59 °FPartly sunny.8 mph72%30.01 "HgN/A
9:00 AM59 °FPartly sunny.8 mph72%29.98 "Hg5 mi
8:00 AM57 °FPartly sunny.6 mph77%29.98 "Hg5 mi
7:00 AM57 °FBroken clouds.5 mph72%29.95 "Hg6 mi
6:00 AM57 °FOvercast.5 mph72%29.95 "HgN/A
5:00 AM57 °FOvercast.1 mph72%29.95 "HgN/A
4:00 AM57 °FOvercast.5 mph72%29.95 "HgN/A
3:00 AM57 °FOvercast.6 mph72%29.98 "HgN/A
2:00 AM59 °FOvercast.6 mph68%29.98 "HgN/A
1:00 AM59 °FOvercast.2 mph72%29.98 "HgN/A
12:00 AM57 °FOvercast.No wind82%29.98 "HgN/A
11:00 PM
Aug 19
57 °FOvercast.2 mph82%29.98 "HgN/A
Weather by CustomWeather, © 2014

See weather overviewHow to use our weather pages